Retour au catalogue

CZ-4 DEB

ActifPO
NORAD 26175·DEBRIS·🇨🇳 China

Lancé Oct 14, 1999 depuis Taiyuan Satellite Launch Center

Loading…

Prochains Passages (prochaines 24 heures)

TLE

FraisSource: Space-Track

Époque: Sep 13, 2026, 12:52 UTC

1 26175U 99057BM  26256.53658072  .00000264  00000-0  19735-3 0  9998
2 26175  98.7271 102.6485 0330500 241.5291 115.2205 13.79423523331235

Suivez CZ-4 DEB en temps réel avec AllMySat

Download on the App Store